FW8396 Weather Reports


Display with metric or nautical units.
time (UTC)temp
F
wind
direction
speed
MPH
gust
MPH
rain 1hr
in
rain 24hr
in
rain mn
in
humidity
%
barometer
mb
20260507200033 77 309 3.0 8.0 0.00 0.00 0.00 71 1015.7
20260507194554 77 324 4.0 11.0 0.00 0.00 0.00 70 1016.0
20260507193030 78 337 3.0 9.0 0.00 0.00 0.00 69 1016.2
20260507191535 77 302 3.0 11.0 0.00 0.00 0.00 70 1016.3
20260507190032 76 88 4.0 11.0 0.00 0.00 0.00 71 1016.3
20260507184535 76 276 2.0 12.0 0.00 0.00 0.00 72 1016.5
20260507183037 76 327 4.0 10.0 0.00 0.00 0.00 69 1016.4
20260507181529 76 328 2.0 9.0 0.00 0.00 0.00 73 1016.6
20260507180034 74 355 2.0 10.0 0.00 0.00 0.00 73 1017.0
20260507174530 73 0 1.0 7.0 0.00 0.00 0.00 75 1017.1
20260507173045 72 312 4.0 9.0 0.00 0.00 0.00 75 1017.4
20260507171541 71 34 2.0 10.0 0.00 0.00 0.00 76 1017.5
20260507170028 70 11 2.0 6.0 0.00 0.00 0.00 77 1017.7
20260507164533 69 123 1.0 11.0 0.00 0.00 0.00 78 1017.8
20260507163029 69 5 2.0 10.0 0.00 0.00 0.00 79 1017.3
20260507161531 67 22 2.0 11.0 0.00 0.00 0.00 81 1017.2
20260507160033 66 335 2.0 8.0 0.00 0.00 0.00 82 1017.4
20260507154531 65 239 2.0 10.0 0.00 0.00 0.00 82 1017.6
20260507153029 65 104 2.0 9.0 0.00 0.00 0.00 83 1017.7
20260507151530 65 30 2.0 7.0 0.00 0.00 0.00 82 1017.7
20260507150032 65 309 1.0 9.0 0.00 0.00 0.00 83 1017.8
20260507144533 65 19 1.0 10.0 0.00 0.00 0.00 84 1017.3
20260507143027 65 309 2.0 11.0 0.00 0.00 0.00 84 1017.3
20260507141527 64 38 2.0 11.0 0.00 0.00 0.00 84 1017.2
20260507140031 65 244 1.0 8.0 0.00 0.00 0.00 84 1017.3
20260507134530 65 326 2.0 9.0 0.00 0.00 0.00 84 1017.5
20260507133030 65 259 2.0 9.0 0.00 0.00 0.00 84 1017.6
20260507131533 65 311 1.0 11.0 0.00 0.00 0.00 84 1017.7
20260507130028 65 316 2.0 11.0 0.00 0.00 0.00 84 1017.7
20260507124529 66 295 4.0 10.0 0.00 0.00 0.00 84 1017.1
20260507123038 67 313 3.0 8.0 0.00 0.00 0.00 84 1016.8
20260507121530 67 0 1.0 8.0 0.00 0.00 0.00 84 1016.7
20260507120040 67 19 1.0 8.0 0.00 0.00 0.00 84 1016.5
20260507114527 67 309 1.0 7.0 0.00 0.00 0.00 85 1016.1
20260507113039 67 19 3.0 8.0 0.00 0.00 0.00 85 1015.5
20260507111530 67 0 0.0 8.0 0.00 0.00 0.00 85 1015.6
20260507110031 67 0 0.0 5.0 0.00 0.00 0.00 85 1015.5
20260507104528 68 74 1.0 8.0 0.00 0.00 0.00 84 1015.5
20260507103027 68 330 2.0 6.0 0.00 0.00 0.00 84 1015.3
20260507101530 68 286 1.0 6.0 0.00 0.00 0.00 85 1015.1
20260507100036 68 0 1.0 4.0 0.00 0.00 0.00 85 1015.2
20260507094528 68 360 0.0 6.0 0.00 0.00 0.00 84 1015.0
20260507093030 68 19 1.0 8.0 0.00 0.00 0.00 84 1014.8
20260507091527 68 0 1.0 10.0 0.00 0.00 0.00 83 1014.7
20260507090029 69 299 3.0 9.0 0.00 0.00 0.00 83 1014.8
20260507084528 69 325 2.0 9.0 0.00 0.00 0.00 83 1015.0
20260507083028 69 0 1.0 7.0 0.00 0.00 0.00 83 1014.6
20260507081533 69 0 1.0 8.0 0.00 0.00 0.00 82 1014.7
20260507080030 69 295 1.0 6.0 0.00 0.00 0.00 82 1015.1
20260507074533 69 0 2.0 9.0 0.00 0.00 0.00 82 1015.0
20260507073030 69 338 1.0 11.0 0.00 0.00 0.00 82 1014.6
20260507071534 70 305 2.0 9.0 0.00 0.00 0.00 82 1015.1
20260507070033 70 275 2.0 9.0 0.00 0.00 0.00 81 1015.0
20260507064540 70 321 3.0 8.0 0.00 0.00 0.00 81 1015.0
20260507063030 70 350 2.0 9.0 0.00 0.00 0.00 81 1014.9
20260507061533 71 5 4.0 9.0 0.00 0.00 0.00 80 1014.9
20260507060028 71 70 2.0 7.0 0.00 0.00 0.00 81 1014.9
20260507054528 72 17 3.0 9.0 0.00 0.00 0.00 80 1014.3
20260507053034 72 332 2.0 10.0 0.00 0.00 0.00 80 1014.3
20260507051528 72 312 2.0 10.0 0.00 0.00 0.00 80 1014.5
20260507050032 73 311 2.0 6.0 0.00 0.00 0.00 80 1014.4
20260507044530 73 304 1.0 8.0 0.00 0.00 0.00 80 1014.5
20260507043031 73 71 2.0 8.0 0.00 0.00 0.00 79 1014.5
20260507041541 74 355 3.0 12.0 0.00 0.00 0.00 79 1014.5
20260507040030 75 319 4.0 9.0 0.00 0.00 0.00 79 1014.4
20260507034540 75 304 2.0 10.0 0.00 0.00 0.00 80 1014.2
20260507033030 76 306 2.0 10.0 0.00 0.00 0.00 80 1013.9
20260507031528 76 270 3.0 10.0 0.00 0.00 0.00 81 1013.6
20260507030029 77 321 3.0 10.0 0.00 0.00 0.00 81 1013.3
20260507024532 77 296 3.0 8.0 0.00 0.00 0.00 81 1012.8
20260507023031 78 303 2.0 9.0 0.00 0.00 0.00 81 1012.5
20260507021530 78 319 1.0 5.0 0.00 0.00 0.00 81 1012.3
20260507020032 79 330 1.0 9.0 0.00 0.00 0.00 80 1012.4
20260507014528 81 296 2.0 9.0 0.00 0.00 0.00 80 1012.1
20260507013033 83 191 1.0 6.0 0.00 0.00 0.00 83 1011.5
20260507011528 83 0 0.0 3.0 0.00 0.00 0.00 83 1011.2
20260507010037 83 0 1.0 6.0 0.00 0.00 0.00 82 1010.9
20260507004530 83 134 0.0 3.0 0.00 0.00 0.00 82 1010.3
20260507003027 83 0 1.0 7.0 0.00 0.00 0.00 82 1010.5
20260507001533 83 148 2.0 10.0 0.00 0.00 0.00 81 1010.2
20260507000030 84 175 2.0 8.0 0.00 0.00 0.00 81 1010.2
20260506234544 84 0 1.0 6.0 0.00 0.00 0.00 80 1010.2
20260506233030 85 190 3.0 9.0 0.00 0.00 0.00 80 1010.2
20260506231529 86 136 3.0 9.0 0.00 0.00 0.00 78 1009.9
20260506230029 86 154 2.0 6.0 0.00 0.00 0.00 77 1009.8
20260506224530 87 130 2.0 9.0 0.00 0.00 0.00 76 1009.7
20260506223032 86 0 2.0 9.0 0.00 0.00 0.00 77 1009.7
20260506221527 88 166 2.0 6.0 0.00 0.00 0.00 75 1009.7
20260506220036 87 180 3.0 8.0 0.00 0.00 0.00 76 1009.6
20260506214530 87 163 2.0 10.0 0.00 0.00 0.00 76 1009.4
20260506213031 88 201 3.0 9.0 0.00 0.00 0.00 75 1009.7
20260506211532 88 159 3.0 8.0 0.00 0.00 0.00 75 1009.8
20260506210030 87 152 2.0 10.0 0.00 0.00 0.00 75 1009.9
20260506204535 86 119 2.0 9.0 0.00 0.00 0.00 77 1010.0
20260506203028 86 159 1.0 10.0 0.00 0.00 0.00 77 1010.1
20260506201528 86 117 2.0 7.0 0.00 0.00 0.00 77 1010.3